| Date | Time | Temp. (oF) | Dew Point (oF) | Rel. Hum. (%) | Press. (in.) | Wind Dir. | Wind Speed (mph) | Hourly Rainfall (in.) |
|
|---|---|---|---|---|---|---|---|---|---|
| 1 | 01/01 | 23:58 | 28 | 17 | 65 | 30.28 | NNW | 3 | 0.00 |
| 2 | 01/01 | 23:00 | 29 | 18 | 64 | 30.28 | W | 3 | 0.00 |
| 3 | 01/01 | 22:00 | 29 | 19 | 66 | 30.27 | WNW | 3 | 0.00 |
| 4 | 01/01 | 21:00 | 29 | 18 | 65 | 30.27 | NW | 5 | 0.00 |
| 5 | 01/01 | 20:00 | 29 | 18 | 65 | 30.26 | W | 3 | 0.00 |
| 6 | 01/01 | 19:00 | 31 | 19 | 63 | 30.25 | WNW | 5 | 0.00 |
| 7 | 01/01 | 18:00 | 30 | 18 | 62 | 30.24 | W | 4 | 0.00 |
| 8 | 01/01 | 17:00 | 31 | 18 | 60 | 30.23 | WNW | 5 | 0.00 |
| 9 | 01/01 | 16:00 | 32 | 19 | 59 | 30.21 | WNW | 7 | 0.00 |
| 10 | 01/01 | 15:00 | 33 | 19 | 57 | 30.19 | W | 4 | 0.00 |
| 11 | 01/01 | 14:00 | 32 | 18 | 56 | 30.18 | WNW | 7 | 0.00 |
| 12 | 01/01 | 13:00 | 32 | 17 | 55 | 30.19 | NNW | 8 | 0.00 |
| 13 | 01/01 | 12:00 | 31 | 18 | 59 | 30.22 | WNW | 9 | 0.00 |
| 14 | 01/01 | 11:00 | 29 | 18 | 64 | 30.24 | WNW | 8 | 0.00 |
| 15 | 01/01 | 10:00 | 27 | 17 | 68 | 30.26 | WNW | 8 | 0.00 |
| 16 | 01/01 | 09:00 | 25 | 17 | 72 | 30.25 | WNW | 3 | 0.00 |
| 17 | 01/01 | 08:00 | 24 | 16 | 73 | 30.23 | W | 2 | 0.00 |
| 18 | 01/01 | 07:00 | 24 | 15 | 71 | 30.22 | SSW | 3 | 0.00 |
| 19 | 01/01 | 06:00 | 24 | 16 | 72 | 30.20 | SW | 4 | 0.00 |
| 20 | 01/01 | 05:00 | 22 | 14 | 74 | 30.17 | W | 6 | 0.00 |
| 21 | 01/01 | 04:00 | 23 | 15 | 72 | 30.16 | SW | 2 | 0.00 |
| 22 | 01/01 | 03:00 | 23 | 15 | 72 | 30.16 | W | 4 | 0.00 |
| 23 | 01/01 | 02:00 | 25 | 14 | 65 | 30.15 | WNW | 2 | 0.00 |
| 24 | 01/01 | 01:00 | 25 | 14 | 65 | 30.13 | WSW | 3 | 0.00 |